Wetterdaten: Donnerstag, 05.06.2008
Datum Zeit Temp. a Sch. Temp. a Son. Temp. a Bod. Feuchte a. Luftdruck Regen Wind Richtung Richtung Sonnenschein Helligkeit Taupunkt Windchill
05.06.2008 00:03 15,7 C 16,3 C 15,9 C 96 % 1015 hPa 0,0 l/m 1,4 m/s (1 Bft) W-SW22.5 255 0 min 0 lux 15,1 C 15,7 C
05.06.2008 00:08 15,7 C 16,3 C 15,9 C 96 % 1015 hPa 0,0 l/m 0,0 m/s (0 Bft) SW 235 0 min 0 lux 15,1 C 15,7 C
05.06.2008 00:13 15,7 C 16,3 C 15,9 C 96 % 1015 hPa 0,4 l/m 0,8 m/s (1 Bft) W-SW 245 0 min 0 lux 15,1 C 15,7 C
05.06.2008 00:18 15,7 C 16,3 C 15,9 C 96 % 1015 hPa 0,0 l/m 0,0 m/s (0 Bft) W-SW 245 0 min 0 lux 15,1 C 15,7 C
05.06.2008 00:23 15,6 C 16,3 C 15,8 C 96 % 1015 hPa 0,0 l/m 0,0 m/s (0 Bft) W-SW 245 0 min 0 lux 15,0 C 15,6 C
05.06.2008 00:28 15,6 C 16,2 C 15,8 C 96 % 1015 hPa 0,0 l/m 0,1 m/s (0 Bft) W-SW 250 0 min 0 lux 15,0 C 15,6 C
05.06.2008 00:33 15,6 C 16,2 C 15,8 C 96 % 1015 hPa 0,0 l/m 1,0 m/s (1 Bft) W-SW 255 0 min 0 lux 15,0 C 15,6 C
05.06.2008 00:38 15,6 C 16,2 C 15,6 C 96 % 1015 hPa 0,0 l/m 1,6 m/s (1 Bft) W22.5 265 0 min 0 lux 15,0 C 15,6 C
05.06.2008 00:43 15,6 C 16,2 C 15,7 C 96 % 1015 hPa 0,0 l/m 1,3 m/s (1 Bft) W 265 0 min 0 lux 15,0 C 15,6 C
05.06.2008 00:48 15,6 C 16,1 C 15,7 C 96 % 1015 hPa 0,0 l/m 0,0 m/s (0 Bft) W 265 0 min 0 lux 15,0 C 15,6 C
05.06.2008 00:53 15,6 C 16,1 C 15,7 C 96 % 1015 hPa 0,0 l/m 0,0 m/s (0 Bft) W 265 0 min 0 lux 15,0 C 15,6 C
05.06.2008 00:59 15,5 C 16,1 C 15,7 C 96 % 1015 hPa 0,0 l/m 0,0 m/s (0 Bft) W 265 0 min 0 lux 14,9 C 15,5 C
05.06.2008 01:04 15,4 C 16,1 C 15,8 C 96 % 1015 hPa 0,0 l/m 0,0 m/s (0 Bft) W 260 0 min 0 lux 14,8 C 15,4 C
05.06.2008 01:09 15,5 C 16,1 C 15,7 C 96 % 1015 hPa 0,0 l/m 0,1 m/s (0 Bft) W 265 0 min 0 lux 14,9 C 15,5 C
05.06.2008 01:13 15,5 C 16,1 C 15,7 C 96 % 1015 hPa 0,0 l/m 0,0 m/s (0 Bft) W 265 0 min 0 lux 14,9 C 15,5 C
05.06.2008 01:18 15,5 C 16,1 C 15,7 C 97 % 1015 hPa 0,0 l/m 0,0 m/s (0 Bft) W 265 0 min 0 lux 15,0 C 15,5 C
05.06.2008 01:23 15,6 C 16,1 C 15,8 C 97 % 1015 hPa 0,0 l/m 0,1 m/s (0 Bft) W 265 0 min 0 lux 15,1 C 15,6 C
05.06.2008 01:28 15,6 C 16,1 C 15,5 C 97 % 1015 hPa 0,0 l/m 2,9 m/s (2 Bft) SO67.5 140 0 min 0 lux 15,1 C 13,6 C
05.06.2008 01:33 15,6 C 16,1 C 15,7 C 97 % 1016 hPa 0,0 l/m 0,0 m/s (0 Bft) O-SO 110 0 min 0 lux 15,1 C 15,6 C
05.06.2008 01:38 15,6 C 16,1 C 15,7 C 97 % 1016 hPa 0,0 l/m 0,0 m/s (0 Bft) O-SO 110 0 min 0 lux 15,1 C 15,6 C
05.06.2008 01:43 15,6 C 16,1 C 15,7 C 97 % 1016 hPa 0,4 l/m 0,1 m/s (0 Bft) O-SO 110 0 min 0 lux 15,1 C 15,6 C
05.06.2008 01:48 15,6 C 16,1 C 15,5 C 97 % 1016 hPa 0,0 l/m 2,3 m/s (2 Bft) O22.5 90 0 min 0 lux 15,1 C 14,5 C
05.06.2008 01:53 15,6 C 16,1 C 15,2 C 96 % 1016 hPa 0,0 l/m 2,7 m/s (2 Bft) O-SO22.5 110 0 min 0 lux 15,0 C 13,9 C
05.06.2008 01:58 15,4 C 16,1 C 15,2 C 95 % 1016 hPa 1,8 l/m 1,2 m/s (1 Bft) O22.5 95 0 min 0 lux 14,6 C 15,4 C
05.06.2008 02:03 15,4 C 16,1 C 15,3 C 95 % 1016 hPa 1,1 l/m 1,2 m/s (1 Bft) O 95 0 min 0 lux 14,6 C 15,4 C
05.06.2008 02:08 15,3 C 16,1 C 15,3 C 95 % 1016 hPa 0,4 l/m 0,0 m/s (0 Bft) O 95 0 min 0 lux 14,5 C 15,3 C
05.06.2008 02:13 15,2 C 16,0 C 15,3 C 95 % 1015 hPa 0,0 l/m 0,0 m/s (0 Bft) O 95 0 min 0 lux 14,4 C 15,2 C
05.06.2008 02:18 15,2 C 16,0 C 15,1 C 95 % 1015 hPa 0,0 l/m 0,0 m/s (0 Bft) O 95 0 min 0 lux 14,4 C 15,2 C
05.06.2008 02:23 15,1 C 16,0 C 15,3 C 95 % 1015 hPa 0,0 l/m 0,0 m/s (0 Bft) O 95 0 min 0 lux 14,3 C 15,1 C
05.06.2008 02:28 15,1 C 15,9 C 15,2 C 95 % 1015 hPa 0,0 l/m 0,0 m/s (0 Bft) O 95 0 min 0 lux 14,3 C 15,1 C
05.06.2008 02:33 15,0 C 15,8 C 15,2 C 96 % 1015 hPa 0,0 l/m 0,0 m/s (0 Bft) O 95 0 min 0 lux 14,4 C 15,0 C
05.06.2008 02:38 15,0 C 15,8 C 15,1 C 95 % 1015 hPa 0,4 l/m 1,8 m/s (2 Bft) S 170 0 min 0 lux 14,2 C 15,0 C
05.06.2008 02:43 15,0 C 15,8 C 15,1 C 95 % 1015 hPa 0,0 l/m 0,2 m/s (0 Bft) W 270 0 min 0 lux 14,2 C 15,0 C
05.06.2008 02:48 15,0 C 15,7 C 15,1 C 95 % 1015 hPa 0,0 l/m 1,3 m/s (1 Bft) W 270 0 min 0 lux 14,2 C 15,0 C
05.06.2008 02:53 15,0 C 15,7 C 15,1 C 95 % 1015 hPa 0,4 l/m 2,2 m/s (2 Bft) W-NW22.5 300 0 min 0 lux 14,2 C 14,2 C
05.06.2008 02:58 15,0 C 15,6 C 15,0 C 95 % 1015 hPa 0,0 l/m 2,5 m/s (2 Bft) W45 280 0 min 0 lux 14,2 C 13,6 C
05.06.2008 03:03 15,0 C 15,6 C 15,0 C 95 % 1015 hPa 0,0 l/m 1,8 m/s (2 Bft) W 260 0 min 0 lux 14,2 C 15,0 C
05.06.2008 03:08 14,9 C 15,6 C 15,0 C 96 % 1015 hPa 0,0 l/m 0,5 m/s (1 Bft) W22.5 270 0 min 0 lux 14,3 C 14,9 C
05.06.2008 03:13 14,9 C 15,5 C 15,0 C 96 % 1015 hPa 0,0 l/m 1,6 m/s (1 Bft) W22.5 265 0 min 0 lux 14,3 C 14,9 C
05.06.2008 03:18 14,8 C 15,5 C 15,0 C 96 % 1015 hPa 0,0 l/m 0,1 m/s (0 Bft) W-SW 240 0 min 0 lux 14,2 C 14,8 C
05.06.2008 03:23 14,8 C 15,5 C 14,9 C 96 % 1015 hPa 0,0 l/m 0,2 m/s (0 Bft) W-SW 245 0 min 0 lux 14,2 C 14,8 C
05.06.2008 03:28 14,8 C 15,4 C 15,0 C 95 % 1015 hPa 0,0 l/m 0,9 m/s (1 Bft) W 260 0 min 0 lux 14,0 C 14,8 C
05.06.2008 03:33 14,8 C 15,4 C 14,9 C 95 % 1015 hPa 0,0 l/m 0,0 m/s (0 Bft) W 260 0 min 0 lux 14,0 C 14,8 C
05.06.2008 03:38 14,8 C 15,4 C 14,9 C 96 % 1015 hPa 0,0 l/m 0,0 m/s (0 Bft) W 260 0 min 0 lux 14,2 C 14,8 C
05.06.2008 03:43 14,8 C 15,4 C 14,9 C 96 % 1015 hPa 0,0 l/m 1,3 m/s (1 Bft) SW22.5 235 0 min 0 lux 14,2 C 14,8 C
05.06.2008 03:48 14,8 C 15,4 C 14,9 C 96 % 1015 hPa 0,0 l/m 1,2 m/s (1 Bft) W-SW 240 0 min 0 lux 14,2 C 14,8 C
05.06.2008 03:53 14,8 C 15,3 C 14,9 C 96 % 1015 hPa 0,0 l/m 1,2 m/s (1 Bft) W-SW 240 0 min 0 lux 14,2 C 14,8 C
05.06.2008 03:58 14,8 C 15,4 C 14,8 C 96 % 1015 hPa 0,0 l/m 1,7 m/s (2 Bft) SW22.5 235 0 min 0 lux 14,2 C 14,8 C
05.06.2008 04:03 14,8 C 15,4 C 14,8 C 96 % 1015 hPa 0,0 l/m 1,7 m/s (2 Bft) SW22.5 235 0 min 0 lux 14,2 C 14,8 C
05.06.2008 04:08 14,8 C 15,3 C 14,9 C 96 % 1015 hPa 0,0 l/m 1,1 m/s (1 Bft) W 260 0 min 0 lux 14,2 C 14,8 C
05.06.2008 04:13 14,8 C 15,4 C 14,8 C 96 % 1015 hPa 0,0 l/m 1,1 m/s (1 Bft) W 260 0 min 0 lux 14,2 C 14,8 C
05.06.2008 04:18 14,8 C 15,3 C 14,8 C 96 % 1015 hPa 0,0 l/m 1,4 m/s (1 Bft) W 260 0 min 0 lux 14,2 C 14,8 C
05.06.2008 04:23 14,8 C 15,4 C 14,8 C 97 % 1015 hPa 0,0 l/m 1,5 m/s (1 Bft) W-SW22.5 250 0 min 0 lux 14,3 C 14,8 C
05.06.2008 04:28 14,8 C 15,3 C 14,9 C 97 % 1015 hPa 0,0 l/m 1,0 m/s (1 Bft) W-SW 240 0 min 0 lux 14,3 C 14,8 C
05.06.2008 04:33 14,8 C 15,4 C 14,8 C 97 % 1014 hPa 0,0 l/m 0,0 m/s (0 Bft) W-SW 240 0 min 0 lux 14,3 C 14,8 C
05.06.2008 04:38 14,8 C 15,3 C 14,9 C 96 % 1014 hPa 0,0 l/m 0,0 m/s (0 Bft) W-SW 240 0 min 0 lux 14,2 C 14,8 C
05.06.2008 04:43 14,8 C 15,3 C 14,8 C 96 % 1014 hPa 0,0 l/m 0,0 m/s (0 Bft) W-SW 240 0 min 0 lux 14,2 C 14,8 C
05.06.2008 04:48 14,8 C 15,3 C 14,9 C 96 % 1014 hPa 0,0 l/m 0,0 m/s (0 Bft) W-SW 240 0 min 0 lux 14,2 C 14,8 C
05.06.2008 04:53 14,8 C 15,3 C 14,8 C 96 % 1014 hPa 0,0 l/m 0,0 m/s (0 Bft) W-SW 240 0 min 0 lux 14,2 C 14,8 C
05.06.2008 04:58 14,7 C 15,3 C 14,8 C 96 % 1014 hPa 0,0 l/m 0,2 m/s (0 Bft) W-SW 240 0 min 39 lux 14,1 C 14,7 C
05.06.2008 05:03 14,7 C 15,3 C 14,7 C 96 % 1014 hPa 0,0 l/m 0,0 m/s (0 Bft) W-SW 240 0 min 53 lux 14,1 C 14,7 C
05.06.2008 05:08 14,7 C 15,2 C 14,7 C 96 % 1014 hPa 0,0 l/m 0,4 m/s (1 Bft) W-SW 240 0 min 96 lux 14,1 C 14,7 C
05.06.2008 05:13 14,7 C 15,2 C 14,7 C 96 % 1014 hPa 0,0 l/m 1,0 m/s (1 Bft) W-SW 240 0 min 156 lux 14,1 C 14,7 C
05.06.2008 05:18 14,7 C 15,2 C 14,7 C 97 % 1014 hPa 0,0 l/m 1,3 m/s (1 Bft) W-SW 245 0 min 237 lux 14,2 C 14,7 C
05.06.2008 05:23 14,7 C 15,2 C 14,6 C 97 % 1014 hPa 0,0 l/m 1,4 m/s (1 Bft) W-SW22.5 245 0 min 367 lux 14,2 C 14,7 C
05.06.2008 05:28 14,7 C 15,2 C 14,7 C 97 % 1014 hPa 0,0 l/m 1,9 m/s (2 Bft) W-SW 245 0 min 457 lux 14,2 C 14,4 C
05.06.2008 05:33 14,6 C 15,2 C 14,6 C 97 % 1014 hPa 0,0 l/m 2,2 m/s (2 Bft) W-SW 250 0 min 702 lux 14,1 C 13,8 C
05.06.2008 05:38 14,7 C 15,1 C 14,7 C 97 % 1014 hPa 0,0 l/m 1,9 m/s (2 Bft) W-SW 255 0 min 963 lux 14,2 C 14,5 C
05.06.2008 05:43 14,7 C 15,2 C 14,6 C 97 % 1014 hPa 0,0 l/m 2,1 m/s (2 Bft) W-SW22.5 250 0 min 1,25 klux 14,2 C 14,0 C
05.06.2008 05:48 14,7 C 15,1 C 14,6 C 97 % 1014 hPa 0,0 l/m 2,1 m/s (2 Bft) W22.5 280 0 min 1,77 klux 14,2 C 14,0 C
05.06.2008 05:53 14,8 C 15,2 C 14,7 C 97 % 1014 hPa 0,0 l/m 2,1 m/s (2 Bft) W22.5 270 0 min 2,14 klux 14,3 C 14,1 C
05.06.2008 05:58 14,8 C 15,1 C 14,7 C 97 % 1014 hPa 0,0 l/m 0,6 m/s (1 Bft) W 260 0 min 2,39 klux 14,3 C 14,8 C
05.06.2008 06:03 15,0 C 15,2 C 14,7 C 97 % 1014 hPa 0,0 l/m 1,0 m/s (1 Bft) W-SW 250 0 min 2,93 klux 14,5 C 15,0 C
05.06.2008 06:08 15,0 C 15,2 C 14,8 C 97 % 1014 hPa 0,0 l/m 0,3 m/s (0 Bft) W-SW 245 0 min 3,34 klux 14,5 C 15,0 C
05.06.2008 06:13 15,0 C 15,2 C 14,8 C 96 % 1014 hPa 0,0 l/m 1,2 m/s (1 Bft) W-SW 245 0 min 3,77 klux 14,4 C 15,0 C
05.06.2008 06:18 15,0 C 15,3 C 14,9 C 96 % 1014 hPa 0,0 l/m 1,8 m/s (2 Bft) W-SW 240 0 min 4,31 klux 14,4 C 15,0 C
05.06.2008 06:23 15,0 C 15,3 C 14,9 C 96 % 1014 hPa 0,0 l/m 1,4 m/s (1 Bft) W-SW22.5 250 0 min 5,15 klux 14,4 C 15,0 C
05.06.2008 06:28 15,0 C 15,3 C 15,0 C 96 % 1014 hPa 0,0 l/m 1,0 m/s (1 Bft) W 260 0 min 5,86 klux 14,4 C 15,0 C
05.06.2008 06:33 15,1 C 15,3 C 15,1 C 96 % 1014 hPa 0,0 l/m 1,0 m/s (1 Bft) W-SW22.5 255 0 min 7,87 klux 14,5 C 15,1 C
05.06.2008 06:38 15,3 C 15,4 C 15,2 C 96 % 1014 hPa 0,0 l/m 1,4 m/s (1 Bft) W-SW 255 0 min 9,1 klux 14,7 C 15,3 C
05.06.2008 06:43 15,3 C 15,5 C 15,4 C 96 % 1014 hPa 0,0 l/m 0,2 m/s (0 Bft) W-SW 255 0 min 11,2 klux 14,7 C 15,3 C
05.06.2008 06:48 16,1 C 15,5 C 15,6 C 95 % 1014 hPa 0,0 l/m 0,0 m/s (0 Bft) W-SW 255 0 min 12,1 klux 15,3 C 16,1 C
05.06.2008 06:53 16,4 C 15,6 C 15,5 C 94 % 1014 hPa 0,0 l/m 0,0 m/s (0 Bft) W-SW 255 0 min 12,5 klux 15,4 C 16,4 C
05.06.2008 06:58 16,4 C 15,7 C 15,7 C 93 % 1014 hPa 0,0 l/m 0,8 m/s (1 Bft) W22.5 260 0 min 14,6 klux 15,3 C 16,4 C
05.06.2008 07:03 16,8 C 15,8 C 15,9 C 91 % 1014 hPa 0,0 l/m 0,0 m/s (0 Bft) W 260 0 min 17,7 klux 15,3 C 16,8 C
05.06.2008 07:08 17,3 C 16,0 C 16,6 C 90 % 1014 hPa 0,0 l/m 0,0 m/s (0 Bft) W 260 0 min 19,9 klux 15,6 C 17,3 C
05.06.2008 07:13 17,4 C 16,0 C 16,6 C 90 % 1014 hPa 0,0 l/m 0,0 m/s (0 Bft) W-SW 250 5 min 23,2 klux 15,7 C 17,4 C
05.06.2008 07:18 18,1 C 16,2 C 17,3 C 87 % 1014 hPa 0,0 l/m 1,0 m/s (1 Bft) W-SW 250 5 min 24,8 klux 15,9 C 18,1 C
05.06.2008 07:23 18,2 C 16,4 C 17,2 C 87 % 1014 hPa 0,0 l/m 1,0 m/s (1 Bft) W-SW 245 5 min 24,2 klux 16,0 C 18,2 C
05.06.2008 07:28 17,7 C 16,4 C 17,1 C 86 % 1014 hPa 0,0 l/m 0,9 m/s (1 Bft) W-SW 245 0 min 18,8 klux 15,3 C 17,7 C
05.06.2008 07:34 17,9 C 16,6 C 17,2 C 87 % 1014 hPa 0,0 l/m 1,1 m/s (1 Bft) SW22.5 230 0 min 17,9 klux 15,7 C 17,9 C
05.06.2008 07:39 17,8 C 16,7 C 17,1 C 87 % 1014 hPa 0,0 l/m 0,0 m/s (0 Bft) SW 215 0 min 17,8 klux 15,6 C 17,8 C
05.06.2008 07:43 18,0 C 16,7 C 17,9 C 87 % 1014 hPa 0,0 l/m 0,0 m/s (0 Bft) SW 215 0 min 16,9 klux 15,8 C 18,0 C
05.06.2008 07:48 18,4 C 16,8 C 18,2 C 87 % 1014 hPa 0,0 l/m 0,0 m/s (0 Bft) SW 215 0 min 18,8 klux 16,2 C 18,4 C
05.06.2008 07:53 19,4 C 17,0 C 19,5 C 84 % 1014 hPa 0,0 l/m 0,0 m/s (0 Bft) SW 215 5 min 31,6 klux 16,6 C 19,4 C
05.06.2008 07:58 20,2 C 17,3 C 19,8 C 80 % 1014 hPa 0,0 l/m 0,0 m/s (0 Bft) SW 215 5 min 32,0 klux 16,6 C 20,2 C
05.06.2008 08:03 20,6 C 17,4 C 19,5 C 80 % 1014 hPa 0,0 l/m 0,0 m/s (0 Bft) SW 215 5 min 35,2 klux 17,0 C 20,6 C
05.06.2008 08:08 21,4 C 17,7 C 20,1 C 74 % 1014 hPa 0,0 l/m 1,6 m/s (1 Bft) SO22.5 125 5 min 37,7 klux 16,6 C 21,4 C
05.06.2008 08:13 21,5 C 17,9 C 20,1 C 73 % 1014 hPa 0,0 l/m 1,6 m/s (2 Bft) SO22.5 125 5 min 35,2 klux 16,4 C 21,5 C
05.06.2008 08:18 21,6 C 17,9 C 20,4 C 70 % 1014 hPa 0,0 l/m 3,2 m/s (2 Bft) O22.5 90 5 min 41,0 klux 15,9 C 20,0 C
05.06.2008 08:23 21,8 C 18,1 C 20,1 C 69 % 1014 hPa 0,0 l/m 3,0 m/s (2 Bft) O45 100 5 min 38,6 klux 15,9 C 20,4 C
05.06.2008 08:28 21,5 C 18,1 C 20,3 C 69 % 1014 hPa 0,0 l/m 2,4 m/s (2 Bft) O-SO22.5 110 5 min 37,4 klux 15,6 C 20,7 C
05.06.2008 08:33 20,7 C 18,2 C 20,0 C 72 % 1014 hPa 0,0 l/m 3,0 m/s (2 Bft) O22.5 100 0 min 32,0 klux 15,5 C 19,1 C
05.06.2008 08:38 20,5 C 18,3 C 19,7 C 74 % 1014 hPa 0,0 l/m 2,1 m/s (2 Bft) O22.5 95 0 min 34,8 klux 15,7 C 20,1 C
05.06.2008 08:43 20,0 C 18,3 C 20,1 C 75 % 1014 hPa 0,0 l/m 3,0 m/s (2 Bft) O-SO45 105 5 min 39,6 klux 15,4 C 18,4 C
05.06.2008 08:48 19,5 C 18,4 C 19,8 C 76 % 1014 hPa 0,0 l/m 3,4 m/s (2 Bft) O22.5 100 0 min 33,9 klux 15,2 C 17,4 C
05.06.2008 08:53 19,3 C 18,4 C 20,0 C 79 % 1014 hPa 0,0 l/m 2,8 m/s (2 Bft) O22.5 80 0 min 32,6 klux 15,6 C 17,9 C
05.06.2008 08:58 19,4 C 18,5 C 19,8 C 76 % 1014 hPa 0,0 l/m 3,5 m/s (3 Bft) O-SO45 105 0 min 36,0 klux 15,1 C 17,2 C
05.06.2008 09:03 19,5 C 18,6 C 19,7 C 76 % 1014 hPa 0,0 l/m 2,7 m/s (2 Bft) O22.5 95 0 min 40,4 klux 15,2 C 18,2 C
05.06.2008 09:08 19,5 C 18,6 C 20,3 C 76 % 1014 hPa 0,0 l/m 2,8 m/s (2 Bft) O-SO22.5 105 0 min 38,1 klux 15,2 C 18,1 C
05.06.2008 09:13 19,6 C 18,6 C 19,8 C 77 % 1014 hPa 0,0 l/m 2,2 m/s (2 Bft) O22.5 95 5 min 46,0 klux 15,5 C 19,0 C
05.06.2008 09:18 19,8 C 18,8 C 20,5 C 76 % 1014 hPa 0,0 l/m 3,7 m/s (3 Bft) O-SO22.5 120 5 min 50,7 klux 15,4 C 17,4 C
05.06.2008 09:23 19,8 C 19,1 C 21,0 C 76 % 1014 hPa 0,0 l/m 3,1 m/s (2 Bft) O-SO22.5 120 5 min 54,1 klux 15,4 C 18,0 C
05.06.2008 09:28 20,4 C 19,2 C 20,8 C 74 % 1014 hPa 0,0 l/m 3,5 m/s (3 Bft) O45 95 0 min 36,0 klux 15,6 C 18,3 C
05.06.2008 09:33 20,5 C 19,4 C 20,8 C 73 % 1014 hPa 0,0 l/m 3,3 m/s (2 Bft) O22.5 90 5 min 52,7 klux 15,5 C 18,7 C
05.06.2008 09:38 20,1 C 19,5 C 20,3 C 72 % 1014 hPa 0,0 l/m 4,8 m/s (3 Bft) O-SO45 105 0 min 47,6 klux 14,9 C 16,9 C
05.06.2008 09:43 20,1 C 19,7 C 20,9 C 73 % 1014 hPa 0,0 l/m 4,4 m/s (3 Bft) O-SO22.5 115 5 min 57,7 klux 15,1 C 17,1 C
05.06.2008 09:48 20,2 C 20,0 C 20,9 C 70 % 1014 hPa 0,0 l/m 5,6 m/s (4 Bft) O-SO45 115 5 min 57,4 klux 14,5 C 16,4 C
05.06.2008 09:53 20,0 C 20,3 C 20,8 C 74 % 1014 hPa 0,0 l/m 3,6 m/s (3 Bft) O45 95 0 min 50,3 klux 15,2 C 17,7 C
05.06.2008 09:58 20,1 C 20,4 C 21,2 C 73 % 1014 hPa 0,0 l/m 4,1 m/s (3 Bft) O-SO45 105 5 min 53,3 klux 15,1 C 17,5 C
05.06.2008 10:03 20,4 C 21,0 C 21,5 C 75 % 1014 hPa 0,0 l/m 3,3 m/s (2 Bft) O-SO45 105 5 min 56,0 klux 15,8 C 18,5 C
05.06.2008 10:08 20,8 C 21,6 C 22,1 C 72 % 1014 hPa 0,0 l/m 3,6 m/s (3 Bft) SO22.5 125 5 min 64,2 klux 15,6 C 18,7 C
05.06.2008 10:13 20,8 C 22,3 C 22,4 C 74 % 1014 hPa 0,0 l/m 4,4 m/s (3 Bft) O-SO22.5 120 5 min 68,3 klux 16,0 C 18,0 C
05.06.2008 10:18 21,2 C 22,6 C 22,8 C 72 % 1014 hPa 0,0 l/m 4,5 m/s (3 Bft) O-SO22.5 115 5 min 69,2 klux 15,9 C 18,5 C
05.06.2008 10:23 21,4 C 23,2 C 22,5 C 69 % 1014 hPa 0,0 l/m 2,5 m/s (2 Bft) SO45 125 5 min 64,8 klux 15,5 C 20,5 C
05.06.2008 10:28 21,4 C 23,9 C 22,5 C 72 % 1014 hPa 0,0 l/m 5,8 m/s (4 Bft) O-SO45 105 5 min 63,0 klux 16,1 C 17,9 C
05.06.2008 10:33 21,6 C 24,4 C 23,2 C 70 % 1014 hPa 0,0 l/m 2,7 m/s (2 Bft) O-NO45 65 5 min 66,9 klux 15,9 C 20,5 C
05.06.2008 10:38 21,6 C 24,7 C 23,2 C 68 % 1014 hPa 0,0 l/m 3,9 m/s (3 Bft) O-SO45 105 5 min 63,0 klux 15,4 C 19,4 C
05.06.2008 10:43 21,8 C 25,3 C 24,1 C 69 % 1014 hPa 0,0 l/m 2,4 m/s (2 Bft) O22.5 85 5 min 62,9 klux 15,9 C 21,0 C
05.06.2008 10:48 21,5 C 25,4 C 22,9 C 67 % 1014 hPa 0,0 l/m 3,8 m/s (3 Bft) O67.5 100 5 min 62,5 klux 15,1 C 19,3 C
05.06.2008 10:53 21,6 C 25,4 C 23,6 C 71 % 1014 hPa 0,0 l/m 4,0 m/s (3 Bft) O45 100 5 min 60,2 klux 16,1 C 19,3 C
05.06.2008 10:58 21,6 C 25,4 C 23,6 C 67 % 1014 hPa 0,0 l/m 3,3 m/s (2 Bft) O-SO22.5 115 5 min 62,6 klux 15,2 C 19,9 C
05.06.2008 11:03 21,5 C 25,6 C 23,5 C 67 % 1014 hPa 0,0 l/m 4,5 m/s (3 Bft) O-SO45 110 5 min 61,2 klux 15,1 C 18,8 C
05.06.2008 11:08 21,5 C 25,8 C 23,8 C 66 % 1014 hPa 0,0 l/m 5,1 m/s (3 Bft) O-SO22.5 105 5 min 62,3 klux 14,9 C 18,4 C
05.06.2008 11:13 21,6 C 25,8 C 24,1 C 69 % 1014 hPa 0,0 l/m 4,5 m/s (3 Bft) O-SO45 110 5 min 65,3 klux 15,7 C 18,9 C
05.06.2008 11:18 21,7 C 26,1 C 24,1 C 70 % 1014 hPa 0,0 l/m 3,4 m/s (3 Bft) O45 90 5 min 66,8 klux 16,0 C 19,9 C
05.06.2008 11:23 21,7 C 26,2 C 23,9 C 70 % 1014 hPa 0,0 l/m 2,5 m/s (2 Bft) O67.5 90 5 min 66,6 klux 16,0 C 20,8 C
05.06.2008 11:29 21,6 C 26,0 C 23,6 C 66 % 1014 hPa 0,0 l/m 7,8 m/s (4 Bft) O45 100 0 min 63,6 klux 15,0 C 17,2 C
05.06.2008 11:33 21,6 C 25,8 C 23,7 C 65 % 1014 hPa 0,0 l/m 6,7 m/s (4 Bft) O-SO45 110 4 min 68,9 klux 14,7 C 17,7 C
05.06.2008 11:38 21,7 C 25,9 C 23,8 C 62 % 1014 hPa 0,0 l/m 5,3 m/s (3 Bft) O-SO45 115 5 min 75,0 klux 14,1 C 18,5 C
05.06.2008 11:43 22,1 C 26,5 C 25,0 C 64 % 1014 hPa 0,0 l/m 6,4 m/s (4 Bft) O45 100 5 min 75,4 klux 15,0 C 18,5 C
05.06.2008 11:48 22,4 C 26,9 C 24,8 C 65 % 1014 hPa 0,0 l/m 6,4 m/s (4 Bft) O45 100 5 min 74,8 klux 15,5 C 18,9 C
05.06.2008 11:53 22,6 C 27,2 C 26,2 C 67 % 1014 hPa 0,0 l/m 5,8 m/s (4 Bft) O-SO45 110 5 min 76,1 klux 16,2 C 19,4 C
05.06.2008 11:58 22,5 C 27,0 C 24,8 C 56 % 1014 hPa 0,0 l/m 7,9 m/s (4 Bft) O-SO45 115 5 min 75,8 klux 13,3 C 18,4 C
05.06.2008 12:03 22,4 C 27,2 C 25,1 C 61 % 1014 hPa 0,0 l/m 6,6 m/s (4 Bft) O67.5 100 5 min 73,2 klux 14,5 C 18,8 C
05.06.2008 12:08 22,2 C 27,0 C 25,2 C 59 % 1014 hPa 0,0 l/m 6,7 m/s (4 Bft) O-SO45 110 0 min 57,9 klux 13,8 C 18,5 C
05.06.2008 12:13 22,4 C 27,1 C 24,6 C 61 % 1014 hPa 0,0 l/m 6,8 m/s (4 Bft) O45 95 0 min 44,1 klux 14,5 C 18,7 C
05.06.2008 12:18 22,0 C 26,8 C 24,5 C 59 % 1014 hPa 0,0 l/m 7,6 m/s (4 Bft) O45 95 0 min 66,6 klux 13,6 C 17,8 C
05.06.2008 12:23 22,3 C 27,0 C 25,4 C 61 % 1014 hPa 0,0 l/m 6,3 m/s (4 Bft) O-SO45 115 5 min 74,7 klux 14,4 C 18,8 C
05.06.2008 12:28 22,4 C 27,2 C 25,4 C 61 % 1014 hPa 0,0 l/m 6,0 m/s (4 Bft) O-SO45 105 5 min 76,5 klux 14,5 C 19,1 C
05.06.2008 12:33 22,6 C 27,3 C 25,6 C 61 % 1014 hPa 0,0 l/m 5,6 m/s (4 Bft) O-SO45 110 5 min 78,4 klux 14,7 C 19,5 C
05.06.2008 12:38 22,8 C 27,4 C 25,6 C 57 % 1014 hPa 0,0 l/m 5,1 m/s (3 Bft) O-SO45 105 5 min 82,6 klux 13,8 C 20,1 C
05.06.2008 12:43 23,0 C 27,5 C 25,9 C 59 % 1014 hPa 0,0 l/m 8,6 m/s (5 Bft) O-SO45 110 5 min 84,0 klux 14,5 C 18,9 C
05.06.2008 12:48 23,0 C 27,6 C 26,6 C 59 % 1014 hPa 0,0 l/m 5,2 m/s (3 Bft) O-SO45 105 5 min 84,7 klux 14,5 C 20,3 C
05.06.2008 12:53 23,0 C 27,8 C 25,9 C 59 % 1014 hPa 0,0 l/m 6,5 m/s (4 Bft) O-SO22.5 115 5 min 87,8 klux 14,5 C 19,6 C
05.06.2008 12:58 22,8 C 27,6 C 26,0 C 59 % 1014 hPa 0,0 l/m 7,6 m/s (4 Bft) O45 95 5 min 80,9 klux 14,4 C 18,9 C
05.06.2008 13:03 22,6 C 27,8 C 25,0 C 58 % 1014 hPa 0,0 l/m 6,4 m/s (4 Bft) SO45 125 5 min 81,2 klux 13,9 C 19,2 C
05.06.2008 13:08 22,8 C 27,7 C 26,2 C 58 % 1014 hPa 0,0 l/m 8,3 m/s (5 Bft) O-SO45 120 5 min 84,9 klux 14,1 C 18,7 C
05.06.2008 13:13 22,9 C 28,1 C 26,7 C 55 % 1014 hPa 0,0 l/m 7,9 m/s (4 Bft) O-SO45 105 5 min 86,7 klux 13,4 C 18,9 C
05.06.2008 13:18 22,9 C 28,8 C 27,1 C 54 % 1014 hPa 0,0 l/m 5,5 m/s (4 Bft) SO45 125 5 min 87,1 klux 13,1 C 20,0 C
05.06.2008 13:23 23,6 C 29,0 C 28,2 C 53 % 1014 hPa 0,0 l/m 6,2 m/s (4 Bft) O-SO45 110 5 min 89,8 klux 13,4 C 20,6 C
05.06.2008 13:28 23,5 C 29,4 C 27,1 C 52 % 1014 hPa 0,0 l/m 6,9 m/s (4 Bft) O-SO45 120 5 min 85,8 klux 13,1 C 20,2 C
05.06.2008 13:33 23,6 C 29,7 C 27,9 C 53 % 1014 hPa 0,0 l/m 4,9 m/s (3 Bft) O67.5 95 5 min 87,6 klux 13,4 C 21,2 C
05.06.2008 13:38 23,7 C 30,1 C 28,5 C 47 % 1014 hPa 0,0 l/m 6,1 m/s (4 Bft) O45 100 5 min 88,1 klux 11,7 C 20,7 C
05.06.2008 13:43 23,1 C 29,6 C 26,8 C 53 % 1014 hPa 0,0 l/m 8,2 m/s (5 Bft) O-SO45 120 5 min 75,8 klux 13,0 C 19,1 C
05.06.2008 13:49 23,2 C 29,3 C 27,5 C 55 % 1014 hPa 0,0 l/m 3,7 m/s (3 Bft) O67.5 90 6 min 85,6 klux 13,6 C 21,4 C
05.06.2008 13:53 23,6 C 29,6 C 28,9 C 48 % 1014 hPa 0,0 l/m 5,8 m/s (4 Bft) O45 100 4 min 89,4 klux 11,9 C 20,8 C
05.06.2008 13:58 23,5 C 29,6 C 27,8 C 55 % 1013 hPa 0,0 l/m 4,9 m/s (3 Bft) O45 85 0 min 32,2 klux 13,9 C 21,1 C
05.06.2008 14:03 23,3 C 29,5 C 26,8 C 53 % 1013 hPa 0,0 l/m 3,4 m/s (2 Bft) O22.5 90 0 min 34,4 klux 13,2 C 21,8 C
05.06.2008 14:08 23,2 C 29,9 C 28,6 C 46 % 1013 hPa 0,0 l/m 5,3 m/s (3 Bft) O67.5 95 5 min 84,3 klux 10,9 C 20,5 C
05.06.2008 14:13 23,7 C 30,4 C 28,3 C 50 % 1013 hPa 0,0 l/m 2,4 m/s (2 Bft) NO67.5 50 5 min 86,3 klux 12,6 C 23,0 C
05.06.2008 14:18 23,4 C 30,6 C 27,7 C 50 % 1013 hPa 0,0 l/m 2,2 m/s (2 Bft) O22.5 95 5 min 83,4 klux 12,4 C 22,9 C
05.06.2008 14:23 23,4 C 30,4 C 28,3 C 50 % 1014 hPa 0,0 l/m 6,1 m/s (4 Bft) O-SO45 110 5 min 81,2 klux 12,4 C 20,3 C
05.06.2008 14:28 23,5 C 30,5 C 28,1 C 45 % 1013 hPa 0,0 l/m 5,7 m/s (4 Bft) O-SO45 120 5 min 78,2 klux 10,9 C 20,6 C
05.06.2008 14:33 23,5 C 30,5 C 27,8 C 42 % 1013 hPa 0,0 l/m 5,6 m/s (4 Bft) O-SO45 105 5 min 75,5 klux 9,8 C 20,7 C
05.06.2008 14:38 23,4 C 30,4 C 28,2 C 41 % 1013 hPa 0,0 l/m 7,3 m/s (4 Bft) O67.5 95 5 min 77,0 klux 9,4 C 19,9 C
05.06.2008 14:43 23,6 C 30,7 C 29,1 C 40 % 1013 hPa 0,0 l/m 5,0 m/s (3 Bft) O45 95 5 min 78,0 klux 9,2 C 21,1 C
05.06.2008 14:48 23,6 C 31,1 C 28,9 C 40 % 1013 hPa 0,0 l/m 7,9 m/s (4 Bft) SO45 125 5 min 78,4 klux 9,2 C 19,9 C
05.06.2008 14:53 23,6 C 30,8 C 26,6 C 41 % 1013 hPa 0,0 l/m 7,6 m/s (4 Bft) O45 100 5 min 77,4 klux 9,6 C 20,0 C
05.06.2008 14:58 23,4 C 30,9 C 26,8 C 44 % 1013 hPa 0,0 l/m 7,7 m/s (4 Bft) O-SO45 105 5 min 75,9 klux 10,4 C 19,7 C
05.06.2008 15:03 23,6 C 31,2 C 25,8 C 41 % 1013 hPa 0,0 l/m 5,0 m/s (3 Bft) O45 80 5 min 71,9 klux 9,6 C 21,2 C
05.06.2008 15:08 23,5 C 31,1 C 25,5 C 42 % 1013 hPa 0,0 l/m 6,6 m/s (4 Bft) O-SO45 115 5 min 70,3 klux 9,8 C 20,3 C
05.06.2008 15:13 23,7 C 31,4 C 25,3 C 43 % 1013 hPa 0,0 l/m 7,4 m/s (4 Bft) SO45 125 5 min 72,1 klux 10,4 C 20,2 C
05.06.2008 15:18 23,8 C 31,4 C 25,2 C 41 % 1013 hPa 0,0 l/m 6,3 m/s (4 Bft) O-SO45 110 5 min 74,3 klux 9,7 C 20,8 C
05.06.2008 15:23 23,8 C 31,4 C 25,0 C 41 % 1013 hPa 0,0 l/m 6,1 m/s (4 Bft) O-SO67.5 105 5 min 72,9 klux 9,7 C 20,9 C
05.06.2008 15:28 23,7 C 31,6 C 25,1 C 39 % 1013 hPa 0,0 l/m 5,9 m/s (4 Bft) O-SO45 110 5 min 71,4 klux 8,9 C 20,8 C
05.06.2008 15:33 23,9 C 31,8 C 25,3 C 47 % 1013 hPa 0,0 l/m 4,1 m/s (3 Bft) O45 90 5 min 73,2 klux 11,9 C 22,0 C
05.06.2008 15:38 23,8 C 31,8 C 24,8 C 43 % 1013 hPa 0,0 l/m 6,0 m/s (4 Bft) O-SO45 105 5 min 71,6 klux 10,5 C 20,9 C
05.06.2008 15:43 23,9 C 31,9 C 24,9 C 44 % 1013 hPa 0,0 l/m 5,1 m/s (3 Bft) O45 100 5 min 66,8 klux 10,9 C 21,5 C
05.06.2008 15:48 23,8 C 31,4 C 23,9 C 41 % 1013 hPa 0,0 l/m 5,7 m/s (4 Bft) O45 100 5 min 71,9 klux 9,7 C 21,1 C
05.06.2008 15:53 23,4 C 31,1 C 24,3 C 42 % 1013 hPa 0,0 l/m 7,3 m/s (4 Bft) O-SO45 115 5 min 68,9 klux 9,7 C 19,9 C
05.06.2008 15:58 23,6 C 31,5 C 24,5 C 41 % 1013 hPa 0,0 l/m 5,5 m/s (3 Bft) SO22.5 125 5 min 77,6 klux 9,6 C 20,9 C
05.06.2008 16:03 23,4 C 31,4 C 23,9 C 44 % 1013 hPa 0,0 l/m 4,9 m/s (3 Bft) O-SO45 105 0 min 18,3 klux 10,4 C 20,9 C
05.06.2008 16:08 23,3 C 31,1 C 23,8 C 45 % 1013 hPa 0,0 l/m 4,7 m/s (3 Bft) O-SO45 110 5 min 66,7 klux 10,7 C 20,9 C
05.06.2008 16:13 23,3 C 31,6 C 24,3 C 45 % 1013 hPa 0,0 l/m 4,6 m/s (3 Bft) SO45 135 5 min 67,3 klux 10,7 C 21,0 C
05.06.2008 16:18 23,8 C 31,8 C 24,2 C 47 % 1013 hPa 0,0 l/m 4,6 m/s (3 Bft) SO45 135 5 min 67,8 klux 11,8 C 21,6 C
05.06.2008 16:23 23,6 C 31,4 C 23,5 C 42 % 1013 hPa 0,0 l/m 7,7 m/s (4 Bft) O-SO67.5 115 5 min 64,9 klux 9,9 C 20,0 C
05.06.2008 16:28 23,6 C 31,5 C 23,8 C 42 % 1013 hPa 0,0 l/m 7,6 m/s (4 Bft) O-SO45 120 5 min 65,1 klux 9,9 C 20,0 C
05.06.2008 16:33 23,8 C 31,8 C 25,1 C 43 % 1013 hPa 0,0 l/m 6,3 m/s (4 Bft) O45 100 5 min 68,2 klux 10,5 C 20,8 C
05.06.2008 16:38 23,2 C 31,2 C 25,3 C 41 % 1013 hPa 0,0 l/m 6,0 m/s (4 Bft) O-SO67.5 120 0 min 25,3 klux 9,2 C 20,1 C
05.06.2008 16:44 23,1 C 30,6 C 25,4 C 46 % 1013 hPa 0,0 l/m 6,8 m/s (4 Bft) O-SO22.5 120 6 min 64,7 klux 10,8 C 19,7 C
05.06.2008 16:48 23,4 C 31,0 C 25,9 C 47 % 1013 hPa 0,0 l/m 3,7 m/s (3 Bft) O-NO67.5 75 4 min 61,7 klux 11,4 C 21,7 C
05.06.2008 16:53 23,6 C 31,6 C 26,1 C 43 % 1013 hPa 0,0 l/m 5,2 m/s (3 Bft) O-SO45 115 5 min 64,9 klux 10,3 C 21,0 C
05.06.2008 16:58 23,1 C 30,8 C 24,0 C 44 % 1013 hPa 0,0 l/m 5,3 m/s (3 Bft) SO67.5 125 0 min 23,6 klux 10,2 C 20,4 C
05.06.2008 17:03 22,6 C 30,1 C 23,6 C 45 % 1013 hPa 0,0 l/m 6,9 m/s (4 Bft) O22.5 95 5 min 56,1 klux 10,1 C 18,9 C
05.06.2008 17:08 22,6 C 30,1 C 24,2 C 47 % 1013 hPa 0,0 l/m 2,8 m/s (2 Bft) O67.5 80 5 min 55,9 klux 10,7 C 21,5 C
05.06.2008 17:13 23,0 C 30,6 C 23,9 C 42 % 1013 hPa 0,0 l/m 6,1 m/s (4 Bft) O45 100 5 min 54,8 klux 9,4 C 19,8 C
05.06.2008 17:18 23,3 C 30,9 C 24,1 C 43 % 1013 hPa 0,0 l/m 6,4 m/s (4 Bft) O-SO45 110 5 min 54,2 klux 10,0 C 20,1 C
05.06.2008 17:23 23,4 C 31,2 C 24,1 C 42 % 1013 hPa 0,0 l/m 5,1 m/s (3 Bft) O45 100 5 min 51,0 klux 9,7 C 20,8 C
05.06.2008 17:28 23,4 C 31,4 C 24,0 C 41 % 1013 hPa 0,0 l/m 6,4 m/s (4 Bft) O67.5 95 5 min 52,8 klux 9,4 C 20,2 C
05.06.2008 17:33 23,6 C 31,8 C 24,3 C 41 % 1013 hPa 0,0 l/m 4,2 m/s (3 Bft) O67.5 95 5 min 52,6 klux 9,6 C 21,6 C
05.06.2008 17:38 23,4 C 31,8 C 24,3 C 42 % 1013 hPa 0,0 l/m 5,0 m/s (3 Bft) O67.5 95 5 min 52,0 klux 9,7 C 20,9 C
05.06.2008 17:43 23,1 C 31,6 C 24,1 C 40 % 1013 hPa 0,0 l/m 6,6 m/s (4 Bft) O-SO22.5 105 5 min 45,0 klux 8,8 C 19,7 C
05.06.2008 17:48 23,1 C 31,0 C 24,0 C 41 % 1013 hPa 0,0 l/m 6,8 m/s (4 Bft) O67.5 100 5 min 46,5 klux 9,1 C 19,7 C
05.06.2008 17:53 22,9 C 31,0 C 23,5 C 41 % 1013 hPa 0,0 l/m 7,2 m/s (4 Bft) O-SO67.5 110 5 min 47,2 klux 8,9 C 19,2 C
05.06.2008 17:58 22,9 C 30,8 C 23,2 C 41 % 1013 hPa 0,0 l/m 6,8 m/s (4 Bft) O-SO45 105 5 min 46,3 klux 8,9 C 19,4 C
05.06.2008 18:03 22,8 C 30,6 C 23,4 C 45 % 1013 hPa 0,0 l/m 7,1 m/s (4 Bft) O45 100 5 min 44,9 klux 10,2 C 19,1 C
05.06.2008 18:08 22,8 C 30,4 C 23,2 C 42 % 1013 hPa 0,0 l/m 7,8 m/s (4 Bft) O-SO45 105 5 min 43,7 klux 9,2 C 18,9 C
05.06.2008 18:13 22,6 C 30,2 C 23,2 C 43 % 1013 hPa 0,0 l/m 8,1 m/s (5 Bft) O-SO45 110 5 min 44,2 klux 9,4 C 18,5 C
05.06.2008 18:18 22,6 C 30,1 C 23,2 C 43 % 1013 hPa 0,0 l/m 5,2 m/s (3 Bft) O-SO45 105 5 min 42,3 klux 9,4 C 19,8 C
05.06.2008 18:23 22,3 C 29,7 C 22,9 C 42 % 1013 hPa 0,0 l/m 6,1 m/s (4 Bft) O67.5 100 5 min 37,8 klux 8,8 C 18,9 C
05.06.2008 18:28 22,2 C 29,7 C 22,9 C 42 % 1013 hPa 0,0 l/m 6,7 m/s (4 Bft) O67.5 100 5 min 36,4 klux 8,7 C 18,5 C
05.06.2008 18:33 22,1 C 29,6 C 22,6 C 43 % 1013 hPa 0,0 l/m 6,1 m/s (4 Bft) O45 90 0 min 33,0 klux 8,9 C 18,6 C
05.06.2008 18:39 22,1 C 29,0 C 22,7 C 45 % 1013 hPa 0,0 l/m 6,0 m/s (4 Bft) O45 100 0 min 30,2 klux 9,6 C 18,7 C
05.06.2008 18:43 22,0 C 29,0 C 23,3 C 45 % 1013 hPa 0,0 l/m 4,3 m/s (3 Bft) O45 95 0 min 31,5 klux 9,5 C 19,6 C
05.06.2008 18:48 22,0 C 29,0 C 22,5 C 46 % 1013 hPa 0,0 l/m 6,3 m/s (4 Bft) O45 95 0 min 29,6 klux 9,8 C 18,4 C
05.06.2008 18:53 22,0 C 29,0 C 22,5 C 49 % 1013 hPa 0,0 l/m 1,9 m/s (2 Bft) O45 85 0 min 29,8 klux 10,8 C 21,8 C
05.06.2008 18:58 22,0 C 28,9 C 22,0 C 47 % 1013 hPa 0,0 l/m 5,6 m/s (4 Bft) O45 95 5 min 29,0 klux 10,2 C 18,8 C
05.06.2008 19:03 22,5 C 28,5 C 22,0 C 46 % 1013 hPa 0,0 l/m 6,5 m/s (4 Bft) O45 100 5 min 28,7 klux 10,3 C 19,0 C
05.06.2008 19:08 23,6 C 28,7 C 22,0 C 44 % 1013 hPa 0,0 l/m 3,4 m/s (2 Bft) O45 90 0 min 26,5 klux 10,6 C 22,1 C
05.06.2008 19:13 23,9 C 28,4 C 21,7 C 43 % 1013 hPa 0,0 l/m 4,4 m/s (3 Bft) O-SO45 120 5 min 26,4 klux 10,5 C 21,8 C
05.06.2008 19:18 23,7 C 28,3 C 21,4 C 44 % 1013 hPa 0,0 l/m 3,5 m/s (3 Bft) O67.5 85 0 min 23,2 klux 10,7 C 22,2 C
05.06.2008 19:23 23,1 C 27,4 C 21,4 C 42 % 1013 hPa 0,0 l/m 7,0 m/s (4 Bft) O45 90 5 min 24,0 klux 9,5 C 19,6 C
05.06.2008 19:28 23,9 C 27,4 C 21,4 C 44 % 1013 hPa 0,0 l/m 4,8 m/s (3 Bft) O22.5 95 5 min 24,1 klux 10,9 C 21,6 C
05.06.2008 19:33 23,7 C 27,4 C 21,2 C 43 % 1013 hPa 0,0 l/m 3,8 m/s (3 Bft) O45 100 0 min 20,9 klux 10,4 C 22,0 C
05.06.2008 19:38 23,4 C 27,2 C 21,1 C 42 % 1013 hPa 0,0 l/m 2,6 m/s (2 Bft) O45 100 0 min 20,5 klux 9,7 C 22,5 C
05.06.2008 19:43 23,2 C 26,9 C 21,0 C 45 % 1013 hPa 0,0 l/m 3,0 m/s (2 Bft) O-SO45 105 5 min 20,9 klux 10,6 C 22,0 C
05.06.2008 19:48 22,8 C 26,8 C 21,0 C 46 % 1013 hPa 0,0 l/m 2,8 m/s (2 Bft) SO45 135 5 min 19,5 klux 10,6 C 21,7 C
05.06.2008 19:53 21,8 C 26,6 C 20,7 C 47 % 1013 hPa 0,0 l/m 3,6 m/s (3 Bft) O45 90 5 min 18,8 klux 10,0 C 19,9 C
05.06.2008 19:58 21,5 C 26,2 C 20,5 C 50 % 1013 hPa 0,0 l/m 4,2 m/s (3 Bft) O45 90 5 min 17,9 klux 10,6 C 19,1 C
05.06.2008 20:03 21,5 C 25,9 C 20,6 C 50 % 1013 hPa 0,0 l/m 2,2 m/s (2 Bft) O45 90 5 min 16,5 klux 10,6 C 21,0 C
05.06.2008 20:08 21,0 C 25,7 C 20,4 C 52 % 1013 hPa 0,0 l/m 2,8 m/s (2 Bft) O-SO45 105 5 min 15,6 klux 10,8 C 19,7 C
05.06.2008 20:13 20,6 C 25,2 C 20,3 C 53 % 1013 hPa 0,0 l/m 4,9 m/s (3 Bft) O22.5 95 0 min 13,3 klux 10,7 C 17,4 C
05.06.2008 20:18 20,2 C 24,8 C 20,2 C 54 % 1013 hPa 0,0 l/m 0,5 m/s (1 Bft) O45 85 5 min 13,0 klux 10,6 C 20,2 C
05.06.2008 20:23 20,0 C 24,2 C 20,1 C 55 % 1013 hPa 0,0 l/m 1,1 m/s (1 Bft) O22.5 80 0 min 10,3 klux 10,7 C 20,0 C
05.06.2008 20:28 19,8 C 24,0 C 19,9 C 57 % 1013 hPa 0,0 l/m 0,5 m/s (1 Bft) O-NO22.5 70 0 min 8,77 klux 11,0 C 19,8 C
05.06.2008 20:34 19,6 C 23,5 C 19,7 C 57 % 1013 hPa 0,0 l/m 0,0 m/s (0 Bft) O-NO 65 0 min 8,23 klux 10,8 C 19,6 C
05.06.2008 20:38 19,5 C 23,0 C 19,5 C 57 % 1013 hPa 0,0 l/m 0,0 m/s (0 Bft) O-SO45 105 0 min 6,89 klux 10,8 C 19,5 C
05.06.2008 20:43 19,2 C 22,8 C 19,6 C 59 % 1013 hPa 0,0 l/m 0,1 m/s (0 Bft) O22.5 100 0 min 5,90 klux 11,0 C 19,2 C
05.06.2008 20:48 19,0 C 22,3 C 19,4 C 59 % 1013 hPa 0,0 l/m 0,0 m/s (0 Bft) O-SO22.5 120 0 min 5,63 klux 10,8 C 19,0 C
05.06.2008 20:53 18,8 C 21,8 C 19,3 C 59 % 1013 hPa 0,0 l/m 0,3 m/s (0 Bft) SO45 140 0 min 4,62 klux 10,6 C 18,8 C
05.06.2008 20:58 18,6 C 21,6 C 19,1 C 61 % 1013 hPa 0,0 l/m 0,1 m/s (0 Bft) NO22.5 55 0 min 3,45 klux 10,9 C 18,6 C
05.06.2008 21:03 18,4 C 21,2 C 19,0 C 61 % 1013 hPa 0,0 l/m 0,0 m/s (0 Bft) NO 45 0 min 2,44 klux 10,7 C 18,4 C
05.06.2008 21:08 18,3 C 20,8 C 18,6 C 61 % 1013 hPa 0,0 l/m 0,0 m/s (0 Bft) NO 45 0 min 1,92 klux 10,6 C 18,3 C
05.06.2008 21:13 18,1 C 20,5 C 18,6 C 61 % 1014 hPa 0,0 l/m 0,0 m/s (0 Bft) NO 45 0 min 1,50 klux 10,5 C 18,1 C
05.06.2008 21:18 17,8 C 20,3 C 18,4 C 62 % 1013 hPa 0,0 l/m 0,0 m/s (0 Bft) NO 45 0 min 1,11 klux 10,4 C 17,8 C
05.06.2008 21:23 17,5 C 19,9 C 18,1 C 64 % 1014 hPa 0,0 l/m 0,3 m/s (0 Bft) O-NO22.5 65 0 min 775 lux 10,6 C 17,5 C
05.06.2008 21:28 17,2 C 19,6 C 17,9 C 64 % 1014 hPa 0,0 l/m 0,2 m/s (0 Bft) O 85 0 min 508 lux 10,3 C 17,2 C
05.06.2008 21:33 16,9 C 19,6 C 17,9 C 65 % 1014 hPa 0,0 l/m 0,0 m/s (0 Bft) O 85 0 min 327 lux 10,3 C 16,9 C
05.06.2008 21:38 16,7 C 19,1 C 17,5 C 65 % 1014 hPa 0,0 l/m 0,0 m/s (0 Bft) O 85 0 min 215 lux 10,1 C 16,7 C
05.06.2008 21:43 16,5 C 18,8 C 17,6 C 65 % 1014 hPa 0,0 l/m 0,1 m/s (0 Bft) O 85 0 min 145 lux 9,9 C 16,5 C
05.06.2008 21:48 16,3 C 18,7 C 17,3 C 66 % 1014 hPa 0,0 l/m 0,0 m/s (0 Bft) O 85 0 min 116 lux 9,9 C 16,3 C
05.06.2008 21:53 16,1 C 18,5 C 17,1 C 67 % 1014 hPa 0,0 l/m 0,0 m/s (0 Bft) O 85 0 min 71 lux 10,0 C 16,1 C
05.06.2008 21:58 16,0 C 18,3 C 16,8 C 66 % 1014 hPa 0,0 l/m 0,0 m/s (0 Bft) O 85 0 min 41 lux 9,7 C 16,0 C
05.06.2008 22:03 15,7 C 17,9 C 16,7 C 69 % 1014 hPa 0,0 l/m 0,0 m/s (0 Bft) O 85 0 min 22 lux 10,0 C 15,7 C
05.06.2008 22:08 15,4 C 17,8 C 16,7 C 70 % 1014 hPa 0,0 l/m 0,0 m/s (0 Bft) O 85 0 min 11 lux 10,0 C 15,4 C
05.06.2008 22:13 15,1 C 17,5 C 16,5 C 72 % 1014 hPa 0,0 l/m 1,4 m/s (1 Bft) O-SO 105 0 min 4 lux 10,1 C 15,1 C
05.06.2008 22:18 15,0 C 17,2 C 16,4 C 72 % 1014 hPa 0,0 l/m 0,9 m/s (1 Bft) O-SO 105 0 min 0 lux 10,0 C 15,0 C
05.06.2008 22:23 15,0 C 17,2 C 16,4 C 72 % 1014 hPa 0,0 l/m 0,9 m/s (1 Bft) O-SO 105 0 min 0 lux 10,0 C 15,0 C
05.06.2008 22:29 15,0 C 16,8 C 16,3 C 72 % 1014 hPa 0,0 l/m 0,2 m/s (0 Bft) O-SO 105 0 min 0 lux 10,0 C 15,0 C
05.06.2008 22:33 15,0 C 16,7 C 16,2 C 70 % 1014 hPa 0,0 l/m 0,0 m/s (0 Bft) O-SO 105 0 min 0 lux 9,6 C 15,0 C
05.06.2008 22:38 15,1 C 16,5 C 16,1 C 70 % 1014 hPa 0,0 l/m 0,1 m/s (0 Bft) O-SO22.5 105 0 min 0 lux 9,7 C 15,1 C
05.06.2008 22:43 15,0 C 16,5 C 16,1 C 70 % 1014 hPa 0,0 l/m 0,0 m/s (0 Bft) O-SO 105 0 min 0 lux 9,6 C 15,0 C
05.06.2008 22:48 15,0 C 16,3 C 15,8 C 70 % 1014 hPa 0,0 l/m 0,3 m/s (0 Bft) O-SO 105 0 min 0 lux 9,6 C 15,0 C
05.06.2008 22:53 14,9 C 16,1 C 15,8 C 70 % 1014 hPa 0,0 l/m 0,2 m/s (0 Bft) O-SO 110 0 min 0 lux 9,5 C 14,9 C
05.06.2008 22:58 14,8 C 16,0 C 15,8 C 70 % 1014 hPa 0,0 l/m 0,9 m/s (1 Bft) O-SO22.5 120 0 min 0 lux 9,4 C 14,8 C
05.06.2008 23:03 14,8 C 15,9 C 15,7 C 70 % 1014 hPa 0,0 l/m 0,2 m/s (0 Bft) O-SO22.5 120 0 min 0 lux 9,4 C 14,8 C
05.06.2008 23:08 14,8 C 15,8 C 15,6 C 70 % 1014 hPa 0,0 l/m 1,1 m/s (1 Bft) O-SO 110 0 min 0 lux 9,4 C 14,8 C
05.06.2008 23:13 14,8 C 15,7 C 15,7 C 69 % 1014 hPa 0,0 l/m 0,0 m/s (0 Bft) O-SO 110 0 min 0 lux 9,2 C 14,8 C
05.06.2008 23:18 14,7 C 15,6 C 15,6 C 70 % 1014 hPa 0,0 l/m 0,0 m/s (0 Bft) O-SO 110 0 min 0 lux 9,3 C 14,7 C
05.06.2008 23:23 14,5 C 15,5 C 15,4 C 71 % 1014 hPa 0,0 l/m 0,0 m/s (0 Bft) O-SO 110 0 min 0 lux 9,3 C 14,5 C
05.06.2008 23:28 14,3 C 15,5 C 15,2 C 72 % 1014 hPa 0,0 l/m 0,0 m/s (0 Bft) O-SO 110 0 min 0 lux 9,3 C 14,3 C
05.06.2008 23:33 14,0 C 15,5 C 15,2 C 73 % 1014 hPa 0,0 l/m 0,0 m/s (0 Bft) O-SO 110 0 min 0 lux 9,2 C 14,0 C
05.06.2008 23:38 14,0 C 15,3 C 15,1 C 72 % 1014 hPa 0,0 l/m 0,0 m/s (0 Bft) O-SO 110 0 min 0 lux 9,0 C 14,0 C
05.06.2008 23:43 13,8 C 15,1 C 14,9 C 73 % 1014 hPa 0,0 l/m 0,0 m/s (0 Bft) O-SO 110 0 min 0 lux 9,0 C 13,8 C
05.06.2008 23:48 13,7 C 15,1 C 14,6 C 74 % 1014 hPa 0,0 l/m 0,0 m/s (0 Bft) O-SO 110 0 min 0 lux 9,2 C 13,7 C
05.06.2008 23:53 13,6 C 15,0 C 14,8 C 74 % 1014 hPa 0,0 l/m 0,0 m/s (0 Bft) O-SO 110 0 min 0 lux 9,1 C 13,6 C
05.06.2008 23:58 13,6 C 14,8 C 14,7 C 74 % 1014 hPa 0,0 l/m 0,0 m/s (0 Bft) O-SO 110 0 min 0 lux 9,1 C 13,6 C
_ Min-Zeit 23:53 23:58 05:23 15:28 13:58 - 00:08 - - - - 18:28 01:28
Minimum _ 13,6 C 14,8 C 14,6 C 39 % 1013 hPa - 0,0 m/s (0 Bft) - - - - 8,7 C 13,6 C
_ Max-Zeit 15:33 15:43 14:43 01:18 01:33 01:58 12:43 - - 13:49 13:23 08:03 14:13
Maximum _ 23,9 C 31,9 C 29,1 C 97 % 1016 hPa 1,8 l/m 8,6 m/s
O-SO (5 Bft)
- - 6 min 89,8 klux 17,0 C 23,0 C
Durchschnitt _ 19,1 C 22,0 C 20,0 C 70 % 1014 hPa #4,7 l/m 2,9 m/s (2 Bft) O - #10:19 h 30,3 klux 12,8 C 17,8 C